Location: Gamarra
(10.0780°N, 67.4929°W)
Time: 08:35:14
(UTC+00:00)

Cosmos 1455 - Pass Details

Date: 13 April 2024
Orbit: 446 x 466 km, 82.5° (Epoch: 22 May)

Event Time Altitude Azimuth Distance (km) Brightness Sun altitude
Rises 23:11:03 0° 156° (SSE) 2,502 5.3 -8.2°
Reaches altitude 10° 23:13:36 10° 137° (SE) 1,630 4.2 -8.8°
Maximum altitude 23:16:07 18° 92° (E) 1,215 3.4 -9.4°
Drops below altitude 10° 23:18:37 10° 47° (NE) 1,636 4.4 -10.0°
Sets 23:21:11 0° 28° (NNE) 2,515 5.5 -10.7°
